Location: Augirein
(42.9320°N, 0.9181°E)
Time: 15:27:48
(UTC+00:00)

Cosmos 1408 - Visible Passes

Search period start: 16 October 2021 00:00
Search period end: 26 October 2021 00:00
Orbit: 467 x 489 km, 82.6° (Epoch: 15 October)

Date Brightness Start Highest point End Pass type
(mag) Time Alt. Az. Time Alt. Az. Time Alt. Az.
20 Oct 5.2 19:17:53 10° N 19:18:10 12° N 19:18:10 12° N visible
21 Oct 4.7 18:51:17 10° N 18:52:03 15° N 18:52:03 15° N visible
22 Oct 4.4 18:24:52 10° NNE 18:26:01 17° NNE 18:26:01 17° NNE visible
22 Oct 5.8 20:00:06 10° NW 20:00:17 11° NW 20:00:17 11° NW visible
23 Oct 4.4 17:58:49 10° NE 18:00:09 14° NE 18:00:09 14° NE visible
23 Oct 4.9 19:32:48 10° NNW 19:34:26 21° NW 19:34:26 21° NW visible
24 Oct 3.3 19:05:49 10° NNW 19:08:48 49° WNW 19:08:48 49° WNW visible
25 Oct 2.3 18:39:00 10° N 18:42:36 79° E 18:43:37 44° SSE visible
